Location: *
(58.7167°N, 26.1833°E)
Time: 03:28:37
(UTC+00:00)

YAOGAN 11 - Pass Details

Date: 25 August 2019
Orbit: 613 x 667 km, 98.3° (Epoch: 14 October)

Event Time Altitude Azimuth Distance (km) Brightness Sun altitude
Exits shadow 21:15:28 45° 168° (SSE) 914 4.4 -19.5°
Maximum altitude 21:16:54 85° 254° (WSW) 677 4.1 -19.6°
Drops below altitude 10° 21:21:31 10° 342° (NNW) 2,108 8.0 -19.7°
Sets 21:23:46 0° 343° (NNW) 3,027 9.2 -19.8°
